CAPE
0 0 0 0 0 0 0 0 0 0 0 0 4 1 4 9 6 4 0 0 0 1 0 0 0 0 0 0 0 0 0 0 0 0 0 0 0 0 0 0 0 0 0 0 0 1 0 0 0 0 2 3 0 0
0 0 0 0 0 0 0 0 0 0 0 0 0 0 0 19 21 38 0 1 17 9 0 0 0 0 0 0 0 0 0 0 6 0 0 0 1 0 0 0 0 0 0 0 0 0 0 44 0 1 3 0 0 3
0 0 0 0 0 0 0 0 0 0 0 0 0 0 0 5 17 15 3 3 8 2 1 0 0 0 0 0 0 0 0 0 0 0 0 0 0 0 0 0 0 0 0 8 1 0 0 0 0 0 0 1 1 6
0 0 0 0 0 0 1 0 0 0 0 0 0 0 0 5 27 40 0 3 7 0 0 0 0 0 0 0 0 0 0 0 1 0 1 0 1 0 0 1 0 0 0 0 0 0 0 0 0 0 0 0 8 0
0 0 1 0 0 0 5 0 0 0 0 0 4 5 4 3 0 6 6 0 0 1 0 0 0 0 0 0 0 0 0 0 2 0 0 0 1 2 0 0 0 0 0 0 0 0 0 0 0 0 0 0 0 0
0 0 0 0 0 0 1 1 0 0 0 1 12 3 0 2 1 0 0 0 0 4 4 0 0 0 0 0 0 0 0 1 0 0 0 1 0 1 5 0 0 0 0 0 0 0 0 0 0 0 0 0 0 0
1 1 0 0 0 7 9 1 0 0 4 4 0 0 0 0 0 0 0 0 3 6 0 0 0 0 0 0 0 0 0 3 2 4 0 0 0 17 0 0 0 0 0 0 0 0 0 0 0 0 0 0 0 0
1 0 0 0 1 7 2 0 0 0 2 0 0 0 0 1 2 0 0 2 2 0 0 0 0 0 0 1 0 0 1 0 1 4 0 2 2 2 3 0 0 0 0 0 0 0 0 0 0 0 0 0 0 0
1 0 0 0 0 4 0 0 3 5 0 15 0 0 1 0 0 0 0 0 0 0 6 0 0 0 0 0 0 0 1 0 0 0 0 1 0 1 0 0 0 0 0 0 0 0 0 0 0 0 0 0 0 0
0 0 0 0 2 0 0 3 0 0 2 2 0 0 0 0 0 1 0 0 2 3 1 0 0 0 0 0 0 0 0 0 0 0 0 1 0 0 0 0 0 0 0 0 0 0 0 0 0 0 0 0 0 0
0 1 0 2 0 0 3 2 0 1 0 0 0 0 0 0 0 0 0 0 0 0 0 0 0 0 0 0 0 0 0 0 2 0 0 0 0 0 0 0 0 0 1 0 1 1 0 0 0 0 0 0 0 0
3 0 0 0 0 3 5 0 0 0 0 0 0 0 0 0 0 0 0 0 0 0 0 0 0 0 0 0 0 0 0 0 0 0 0 0 1 1 0 1 5 24 15 4 2 0 0 0 0 0 0 0 0 0
9 0 0 0 0 2 2 1 0 0 0 0 0 0 0 0 0 0 0 0 0 0 0 0 0 0 0 0 0 0 0 0 0 3 0 1 11 0 0 0 0 3 3 0 0 0 0 0 0 0 0 0 0 0
9 2 0 0 0 6 0 0 0 0 0 0 0 0 0 0 0 0 0 0 0 0 3 1 0 0 0 0 0 0 0 0 0 0 0 0 1 0 0 0 0 1 0 0 0 0 0 0 0 0 0 0 0 0
10 2 0 2 16 13 0 0 0 0 0 0 0 0 0 0 0 0 0 0 0 0 0 0 0 0 0 0 0 0 0 0 0 0 0 0 0 0 0 0 1 0 0 0 0 0 0 0 0 0 0 0 0 0
4 0 12 2 1 3 2 4 0 0 0 0 0 0 0 0 0 0 0 0 0 0 0 0 0 0 0 0 0 0 0 0 0 0 0 0 0 0 0 0 0 0 0 0 0 0 0 0 0 0 0 0 0 0
7 11 10 16 4 9 0 0 0 0 0 0 0 0 0 0 0 0 0 0 0 2 0 0 0 11 0 0 0 0 0 0 0 0 0 0 0 0 0 0 0 0 0 0 0 0 0 0 0 0 0 0 0 0
0 2 2 5 0 0 0 0 0 0 0 0 0 0 0 0 0 0 0 0 0 1 0 0 0 0 0 1 8 3 0 0 0 0 0 0 0 0 0 0 0 0 0 0 0 0 0 0 0 0 0 0 0 0
2 1 0 0 0 0 0 0 0 0 0 0 0 0 0 0 0 0 0 0 0 0 0 0 0 0 2 9 4 1 1 0 0 0 0 0 0 0 0 0 0 0 0 0 0 0 0 0 0 0 0 0 0 0
0 0 0 3 1 0 0 0 0 0 0 0 0 0 0 0 0 0 0 0 0 0 0 0 0 0 0 0 0 0 0 0 0 0 0 0 0 0 0 0 0 0 0 0 0 0 0 0 0 0 0 0 0 0
0 2 6 0 0 0 0 0 0 0 0 0 0 0 0 0 0 0 0 0 0 0 0 0 0 0 1 0 0 0 0 0 0 1 4 1 1 0 0 0 0 0 0 0 0 0 0 0 0 0 0 0 0 0
0 2 0 0 0 0 0 0 0 0 2 0 0 0 0 0 0 0 0 0 0 0 0 0 1 0 0 0 0 0 0 0 0 0 0 0 0 0 0 0 0 0 0 0 0 0 0 0 0 0 0 0 0 0
0 6 4 0 0 0 0 0 10 9 0 0 0 2 0 0 0 0 0 0 0 0 0 0 0 0 0 0 0 0 0 0 0 0 0 0 0 0 0 0 0 0 0 0 0 0 0 0 0 0 0 0 0 0
1 0 0 0 0 0 0 0 0 0 1 0 0 0 0 0 0 0 0 0 0 0 0 0 0 0 0 0 0 0 1 1 1 0 0 0 0 0 0 0 0 0 0 0 0 0 0 0 0 0 0 0 0 0
1 0 0 0 0 0 0 0 0 0 0 0 0 0 0 0 0 0 0 0 0 0 0 0 0 0 0 0 0 0 0 1 1 2 0 0 0 0 0 0 0 0 0 0 0 0 0 0 0 0 0 0 0 0
0 0 0 0 0 0 0 0 0 2 1 1 0 0 0 0 1 2 0 0 0 0 0 0 0 0 0 0 0 0 0 0 0 3 2 0 0 0 0 0 0 0 0 0 0 0 0 0 0 0 0 0 0 0
0 0 0 0 0 0 0 0 0 0 0 0 0 0 0 6 1 0 0 0 0 0 0 0 0 0 0 0 0 0 0 0 0 1 1 1 0 0 0 1 0 0 0 0 0 0 0 0 0 0 0 0 0 0
0 0 0 0 0 0 0 0 0 0 0 0 0 7 16 11 11 0 0 0 0 0 0 0 0 0 0 0 0 0 0 1 1 0 0 0 0 0 0 1 0 0 0 0 0 0 0 0 0 0 0 0 0 0
0 0 0 0 0 0 0 0 0 0 0 6 2 1 3 0 0 0 0 0 0 0 0 0 0 0 0 0 0 0 0 0 0 0 0 0 0 0 0 0 0 0 0 0 0 0 0 0 0 0 0 0 0 0
0 0 0 0 0 0 0 0 0 0 0 0 0 0 0 0 0 0 0 0 0 0 0 0 0 0 0 0 0 0 0 0 0 0 0 0 0 0 0 0 0 0 0 0 0 0 0 0 0 0 0 0 0 0
0 0 0 0 0 0 0 0 0 0 0 0 0 0 0 0 0 0 0 0 0 0 0 0 0 0 0 0 0 0 0 0 0 0 0 0 1 1 0 0 0 0 0 0 0 0 0 0 0 0 0 0 0 0
0 0 0 0 0 0 0 0 0 0 0 0 0 0 0 0 0 0 0 0 0 0 0 0 0 0 0 0 0 0 0 0 0 0 1 0 1 1 0 0 0 0 0 0 0 0 0 0 0 0 0 0 0 0
0 0 0 0 0 1 0 0 0 0 0 0 0 0 0 0 0 0 0 0 0 0 0 0 0 0 0 0 0 0 0 0 0 0 0 0 0 0 0 0 0 0 0 0 0 0 0 0 0 0 0 0 0 0
CIN
0 0 0 0 0 0 0 0 0 0 0 0 -7 -8 -18 -13 -7 -3 0 0 0 -0 -0 0 0 0 0 0 0 0 0 0 0 0 0 0 0 0 0 0 0 0 0 0 0 -0 0 0 0 0 -1 -71 -4 0
0 0 0 0 0 0 0 0 0 0 0 0 0 0 -1 -7 -6 -0 -0 -1 -7 -0 0 0 0 0 0 0 0 0 0 0 -19 -20 0 -6 -11 0 0 0 0 0 0 0 0 0 0 -35 0 -3 -32 0 -15 -85
0 0 0 0 0 0 0 0 0 0 0 0 0 0 0 -9 -1 -26 0 -0 0 -0 -4 0 0 0 0 0 0 0 0 0 0 0 0 0 0 0 0 0 0 0 0 -8 -8 0 0 0 0 0 0 -13 -9 -72
0 0 0 0 0 0 -6 0 0 0 0 0 0 0 0 -6 -1 -0 -1 -5 -2 0 0 0 0 0 0 0 0 0 0 0 -0 -1 -0 -1 -1 0 0 -1 -0 0 0 0 0 0 0 0 0 0 0 0 -87 0
0 0 -11 0 0 0 -18 0 0 0 0 0 -7 -10 -10 -6 -1 -9 -13 -1 0 -1 0 0 0 0 0 0 0 0 0 0 0 0 -0 0 -2 -1 0 0 0 0 0 0 0 0 0 0 0 0 0 0 0 0
0 -14 -0 -15 0 0 -25 -30 0 0 0 -2 -5 -3 0 -8 -13 0 0 0 0 -5 -0 -1 0 0 0 0 0 0 0 0 -0 0 0 -1 0 -2 -8 0 0 0 0 0 0 0 0 0 0 0 0 0 0 0
-14 -19 0 0 -2 -16 -18 -20 0 0 -6 -6 0 0 0 0 0 0 0 0 -25 -2 -0 0 0 0 0 0 0 0 0 -0 0 0 -1 -0 -1 -3 0 0 0 0 0 0 0 0 0 0 0 0 0 0 0 0
-20 0 0 0 -10 -16 -26 0 0 0 -5 0 0 0 0 -4 -5 0 0 -1 -5 0 0 0 0 0 0 -30 -33 0 -24 -0 -0 -0 0 -6 -4 -6 -1 0 0 0 0 0 0 0 0 0 0 0 0 0 0 0
-12 0 0 0 -8 -21 0 0 -2 -4 0 -0 0 -2 -1 0 0 0 0 0 0 0 -7 0 0 0 0 0 0 0 -12 -4 0 0 0 -4 0 -1 0 0 0 0 0 0 0 0 0 0 0 0 0 0 0 0
0 0 0 -0 -18 0 -0 -5 0 0 -2 -2 0 0 0 0 0 -16 0 -0 -1 -5 -4 -0 0 0 0 0 0 0 0 0 0 0 0 -3 0 0 0 0 0 0 0 0 0 0 0 0 0 0 0 0 0 0
0 -21 0 -8 0 0 -0 -3 0 -1 0 0 0 0 0 -2 -3 0 0 0 0 0 0 0 0 0 0 0 0 0 0 0 -1 0 0 0 0 0 -8 0 0 -11 -16 0 0 0 0 0 0 0 0 0 0 0
-8 0 0 0 0 -0 0 0 0 0 0 0 0 0 0 0 0 0 0 0 0 0 0 0 0 0 0 0 0 0 0 0 0 0 0 0 -10 -5 -29 -40 -86 -23 -12 -4 -0 -1 0 0 0 0 0 0 0 0
-6 -12 0 0 0 -1 -4 -0 0 0 0 0 0 0 0 0 0 0 0 0 0 0 0 -6 -1 0 0 0 0 0 0 0 0 -2 0 -3 -5 0 0 0 0 -2 0 0 0 0 0 0 0 0 0 0 0 0
-5 -12 -16 0 0 -1 -0 0 0 0 0 0 0 0 0 0 0 0 0 0 0 0 -16 -16 0 0 0 0 0 0 0 0 0 0 0 0 -26 0 0 0 0 0 0 0 0 0 0 0 0 0 0 0 0 0
-5 -10 0 -1 -0 -0 -0 0 0 0 0 0 0 0 0 0 0 0 0 0 0 0 0 0 0 0 0 0 0 0 0 0 0 0 0 0 0 0 0 0 0 0 0 0 0 0 0 0 0 0 0 0 0 0
-3 0 -0 0 0 -2 -4 -7 0 0 0 0 0 0 0 0 0 0 0 0 0 -8 0 0 0 0 0 0 0 0 0 0 0 0 0 0 0 0 0 0 0 0 0 0 0 0 0 0 0 0 0 0 0 0
-6 -1 -0 -2 -3 -3 -1 0 -12 0 0 0 0 0 0 0 0 0 0 0 0 -2 0 0 0 -14 0 0 0 0 0 -0 0 0 0 0 0 0 0 0 0 0 0 0 0 0 0 0 0 0 0 0 0 0
0 0 -0 -0 0 0 -1 0 0 0 0 0 0 0 0 0 0 0 0 0 -1 -5 0 -1 0 0 0 -9 -5 -14 0 0 0 0 0 0 0 0 0 0 0 0 0 0 0 0 0 0 0 0 0 0 0 0
-0 -0 0 0 0 0 0 0 0 0 0 0 0 0 0 0 0 0 0 0 0 -10 0 0 0 -1 -4 -12 -8 0 -5 0 0 0 0 0 0 0 0 0 0 0 0 0 0 0 0 0 0 0 0 0 0 0
0 0 0 -5 -4 0 0 0 0 0 0 0 0 0 0 0 0 0 0 0 0 0 0 0 0 0 -1 0 0 0 0 0 0 0 0 0 -1 0 0 -1 0 0 0 0 0 0 0 0 0 0 0 0 0 0
0 -1 -4 0 0 0 0 0 0 0 0 0 0 0 0 0 0 0 0 0 -1 0 0 0 0 0 0 0 0 0 0 0 0 0 0 0 0 0 0 0 0 0 0 0 0 0 0 0 0 0 0 0 0 0
0 -1 0 0 0 0 0 -0 0 0 -1 0 0 0 0 0 0 0 0 -3 0 0 0 0 0 0 0 0 0 -11 0 0 0 0 0 0 0 0 0 0 0 0 0 0 0 0 0 0 0 0 0 0 0 0
0 -3 -7 0 0 0 0 0 -1 -6 -3 0 0 -7 0 0 0 0 0 0 0 0 0 0 0 0 0 0 0 0 0 0 0 0 0 0 0 0 0 0 0 0 0 0 0 0 0 0 0 0 0 0 0 0
0 0 0 0 0 0 0 0 0 -1 -12 -2 0 0 0 0 0 0 0 0 0 0 0 0 0 0 0 0 0 0 0 0 0 0 0 0 0 0 0 0 0 0 0 0 0 0 0 0 0 0 0 0 0 0
-0 0 0 0 0 0 0 0 0 0 0 0 0 0 0 0 0 -1 0 0 0 0 0 0 0 0 0 0 0 0 0 -0 -0 0 0 0 0 0 0 0 0 0 0 0 0 0 0 0 0 0 0 0 0 0
0 0 0 0 0 0 0 0 0 -14 -26 -13 0 0 0 0 -5 -1 0 0 0 0 0 0 0 0 0 0 0 0 -0 -0 0 0 0 0 0 0 0 0 0 0 0 0 0 0 0 0 0 0 0 0 0 0
0 0 0 0 0 0 0 0 0 0 0 0 0 0 -0 -5 -8 0 0 0 0 0 0 0 0 -2 -3 -3 -4 -5 0 -0 0 0 0 0 0 0 -0 0 0 0 0 0 0 0 0 0 0 0 0 0 0 0
0 0 0 0 0 0 0 0 0 0 0 0 -12 -7 -2 -11 -16 0 0 0 0 0 0 0 0 0 0 0 -1 0 0 0 0 0 0 0 0 0 0 0 0 0 0 0 0 0 0 0 0 0 0 0 0 0
0 0 0 0 0 0 0 0 0 0 0 -13 -8 -8 -4 0 0 0 0 0 0 0 0 0 0 0 0 0 0 0 0 0 0 0 0 0 0 0 0 0 0 0 0 0 0 0 0 0 0 0 0 0 0 0
0 0 0 0 0 0 0 0 0 0 0 0 0 0 0 0 0 0 0 0 0 0 0 0 0 0 0 0 0 0 0 0 0 0 0 0 0 0 0 0 0 0 0 0 0 0 0 0 0 0 0 0 0 0
0 0 0 0 0 0 0 0 0 0 0 0 0 0 0 0 0 0 0 0 0 0 0 0 0 0 0 0 0 0 0 0 0 0 0 0 0 0 0 0 0 0 0 0 0 0 0 0 0 0 0 0 0 0
0 0 -0 -0 0 0 0 0 0 0 0 0 0 0 0 0 0 0 0 0 0 0 0 0 0 0 0 0 0 0 0 0 0 0 0 0 0 0 0 0 0 0 0 0 0 0 0 0 0 0 0 0 0 0
0 0 0 0 -1 -9 -2 0 0 0 0 0 0 0 0 0 0 0 0 0 0 0 0 0 0 0 0 0 0 0 0 0 0 0 0 0 0 0 0 0 0 0 0 0 0 0 0 0 0 0 0 0 0 0
Wind_Speed
5 5 7 11 15 17 21 24 24 22 17 13 10 9 9 10 9 11 18 10 14 24 29 25 23 25 27 27 32 29 34 29 27 29 31 33 35 34 34 35 35 37 37 41 39 44 47 32 30 27 31 27 26 32
9 12 17 21 27 28 28 26 20 16 14 12 11 10 9 7 6 6 15 13 12 21 28 22 21 20 25 27 30 28 30 27 25 27 27 28 31 30 31 43 34 39 29 33 28 31 29 27 39 41 41 44 36 35
22 26 28 28 27 27 24 12 11 13 12 11 10 8 6 4 4 8 13 12 13 20 27 27 29 24 21 20 19 26 26 25 29 27 34 35 39 33 40 42 44 35 31 34 35 42 41 37 38 35 36 39 38 37
29 28 28 26 23 18 10 8 9 11 13 12 11 12 10 7 6 7 11 11 16 19 25 28 22 26 23 17 12 12 19 19 21 18 22 25 25 20 33 36 43 41 32 28 31 41 37 35 28 33 34 31 31 35
29 28 25 19 16 13 7 7 9 11 13 12 9 10 9 8 8 7 9 12 11 15 22 34 37 36 26 23 32 27 22 22 21 8 10 19 31 35 37 40 43 34 35 27 33 34 33 37 35 31 38 37 34 34
30 25 19 17 9 6 4 7 8 9 16 6 5 6 7 7 7 9 11 8 1 8 22 27 24 29 29 31 28 23 21 14 29 33 33 33 29 18 29 35 34 19 14 21 36 27 17 38 38 42 42 34 32 34
20 14 11 9 5 3 4 6 7 13 8 5 5 6 6 7 7 8 11 13 9 7 23 24 23 19 20 23 21 21 1 21 25 27 32 32 26 24 31 39 31 14 19 21 17 27 36 33 37 30 27 24 25 18
11 11 12 9 6 3 5 5 9 4 5 6 6 7 8 7 11 10 5 4 8 20 22 25 26 25 22 24 24 19 20 19 24 29 25 28 29 23 19 30 45 43 34 33 25 25 25 40 34 28 25 28 21 20
11 11 9 8 5 5 6 6 4 7 7 8 8 9 10 11 10 12 16 10 5 12 25 26 27 27 20 22 23 26 19 29 27 31 29 19 16 11 14 17 26 23 26 29 26 23 19 35 41 34 29 24 17 17
10 9 7 4 3 5 4 7 8 9 10 10 9 10 10 9 9 10 14 19 21 22 26 23 22 19 16 14 28 28 20 24 27 23 18 6 23 24 28 27 29 40 31 23 16 18 13 38 36 35 23 22 13 9
9 6 4 5 2 3 6 9 11 12 7 8 10 13 18 17 16 16 16 17 17 15 15 13 13 14 13 14 18 9 16 19 18 17 13 17 3 16 27 29 33 37 40 22 8 26 34 33 33 30 27 8 8 6
15 13 12 12 7 10 13 12 14 8 10 13 19 17 17 17 17 16 16 15 15 15 13 12 14 14 16 16 19 17 17 16 17 7 8 6 13 26 31 32 35 36 35 39 13 19 36 35 33 12 2 7 6 4
21 16 15 15 8 13 14 17 19 6 15 18 18 17 17 17 17 17 15 14 14 14 11 11 14 15 16 18 20 19 18 17 19 13 10 20 27 20 27 27 26 26 31 31 26 29 36 32 5 3 6 4 4 7
18 14 12 15 15 18 20 22 6 21 19 19 19 18 18 18 18 18 15 13 13 14 16 15 16 17 17 19 19 18 16 15 14 12 8 21 12 21 26 26 24 20 18 17 14 7 10 13 9 2 5 6 10 11
22 16 16 15 20 23 25 24 24 20 21 19 19 19 20 19 18 17 17 17 14 13 15 12 11 16 17 17 17 16 14 14 12 13 7 7 12 20 29 25 21 18 14 13 18 24 19 10 3 2 5 10 16 15
25 22 20 23 30 27 24 29 21 20 20 20 20 19 19 19 19 19 18 17 17 14 11 9 13 15 16 15 15 14 15 13 5 8 8 10 11 11 26 25 22 19 16 15 11 8 6 12 16 15 11 12 12 11
26 22 27 25 20 6 19 22 22 21 21 20 20 20 21 22 21 20 19 17 15 15 13 12 13 13 12 15 16 9 9 24 17 9 5 7 8 9 20 24 23 20 16 15 12 8 6 5 6 7 10 6 7 8
18 27 28 22 8 18 20 21 21 20 23 24 23 22 23 23 24 22 20 18 17 17 16 14 13 12 11 11 25 19 9 10 20 21 15 7 10 15 21 20 23 21 17 14 11 8 5 5 6 6 7 6 7 7
29 26 24 18 22 19 20 21 21 22 24 24 25 25 25 24 20 20 20 19 11 5 21 21 11 7 9 14 31 32 23 27 32 27 18 6 9 16 30 26 20 18 15 13 9 6 4 3 4 5 5 5 5 5
30 29 28 19 18 17 19 21 20 24 23 23 25 26 26 28 29 29 27 27 24 23 21 21 6 8 3 12 16 21 15 34 34 33 30 32 30 17 5 11 21 14 10 8 9 6 5 4 3 1 1 3 4 5
28 28 23 18 17 18 20 20 22 22 24 24 26 27 29 28 30 29 27 23 22 21 23 24 28 30 31 30 27 13 12 26 35 34 35 33 32 29 2 7 6 6 6 4 2 2 3 2 1 1 2 3 2 3
21 22 21 19 18 21 23 22 23 24 24 27 31 26 28 30 29 25 23 23 23 22 24 28 31 33 34 35 36 31 26 24 26 30 30 30 32 31 28 10 5 2 2 4 1 0 1 2 1 1 1 2 3 3
16 13 11 9 20 22 24 21 23 22 26 26 25 27 27 27 24 22 25 23 22 23 24 27 29 30 32 33 34 33 32 31 32 31 31 31 32 30 27 17 9 4 3 3 5 6 5 4 3 3 3 3 3 3
13 10 12 15 12 21 22 23 23 26 26 28 28 29 28 26 26 27 29 26 23 23 26 29 31 34 34 34 35 36 35 34 34 32 29 32 33 32 27 21 14 10 10 9 7 7 7 7 6 5 4 4 4 4
9 8 9 6 11 16 21 24 24 25 27 28 29 30 31 28 31 32 34 30 23 26 29 32 34 34 37 39 39 38 36 35 37 39 35 31 33 31 28 22 17 14 11 10 10 10 10 9 8 7 7 7 7 6
9 10 9 10 12 12 15 21 22 24 26 28 28 29 30 33 35 34 30 22 22 26 32 34 36 38 38 37 41 42 41 39 39 39 37 32 30 30 29 26 22 18 14 15 14 13 13 12 11 10 10 9 7 7
10 10 9 9 13 16 18 19 21 23 26 29 30 30 29 27 26 26 22 20 23 33 35 34 35 38 41 41 41 40 40 40 38 40 39 34 31 30 29 27 25 23 18 16 16 16 15 14 13 12 12 11 9 8
10 14 13 16 16 17 21 23 22 23 23 24 25 25 24 25 27 25 25 26 35 40 39 37 37 36 37 38 40 43 41 39 39 38 35 31 29 30 31 31 30 26 23 20 18 17 15 13 13 12 11 11 9 8
15 16 17 19 20 20 22 22 22 24 25 25 26 26 28 27 27 33 38 37 36 37 37 37 36 37 37 37 37 37 37 38 40 40 39 38 37 34 28 29 29 25 23 21 18 16 15 13 12 11 11 9 8 7
20 19 24 26 26 27 26 22 22 24 25 25 26 28 30 34 33 31 32 32 33 32 31 30 32 35 38 39 42 43 38 34 35 35 39 39 38 35 32 30 28 27 23 19 16 13 12 12 12 10 9 9 8 8
24 28 30 30 30 29 28 27 27 27 28 28 27 28 27 30 27 26 27 26 25 26 30 34 36 36 39 40 41 42 44 36 36 40 40 39 38 36 31 28 26 25 22 18 15 14 13 11 10 9 9 9 9 8
31 34 37 36 35 33 32 28 26 25 28 29 29 28 27 25 25 21 20 22 26 29 31 34 38 40 39 37 35 32 31 38 39 38 39 36 35 33 30 27 25 24 22 19 15 12 9 10 10 10 9 9 8 7
35 34 33 33 31 30 30 35 33 32 28 27 27 24 20 17 17 17 18 22 25 29 33 36 37 37 36 36 37 34 33 36 37 36 35 33 32 31 29 27 25 22 19 17 17 16 14 12 11 10 8 7 6 6
Wind_Direction
276 279 280 278 275 273 265 262 268 280 295 304 301 296 294 293 288 293 300 295 294 297 294 297 299 291 293 293 289 294 296 295 293 288 290 289 288 289 288 288 290 290 289 285 284 282 284 294 285 290 298 305 309 294
275 274 267 261 248 246 250 261 283 300 308 311 309 304 299 290 274 261 300 300 294 297 299 308 303 294 290 290 291 291 288 292 297 294 293 295 291 292 292 287 292 288 289 290 287 286 290 292 282 289 287 279 292 292
252 245 235 236 239 244 257 301 311 315 321 320 318 317 308 293 288 297 308 313 311 304 301 298 296 303 294 287 284 287 292 292 289 286 287 288 286 290 287 286 283 289 289 287 287 275 264 288 281 297 295 288 285 286
228 230 232 239 255 278 305 320 328 326 323 320 316 316 320 317 308 308 310 310 304 312 307 306 313 301 303 298 276 239 229 293 299 298 290 289 285 292 286 283 278 270 284 296 287 273 288 290 296 299 303 305 299 292
227 232 245 267 283 298 320 331 333 331 325 322 326 324 333 333 336 337 326 309 305 307 312 296 288 259 228 216 221 215 209 213 213 285 288 290 269 265 254 267 250 275 274 284 285 287 291 288 300 301 296 298 303 302
232 249 268 278 304 324 338 340 340 338 320 339 354 356 357 31 41 16 358 340 354 325 310 291 261 259 250 245 223 209 203 196 228 253 249 240 224 295 284 271 281 299 296 293 282 301 302 279 292 287 288 302 305 307
259 278 290 303 317 324 335 340 344 328 340 33 33 24 56 65 57 30 22 356 32 47 267 267 260 261 260 277 301 292 9 285 281 281 258 233 288 292 285 263 231 285 307 304 295 302 295 299 275 308 305 310 312 316
274 285 292 305 317 332 339 346 333 1 57 50 52 51 38 44 348 347 126 71 3 309 290 257 255 269 293 274 286 308 301 300 291 279 296 290 292 293 224 233 256 279 297 298 298 295 290 288 301 304 303 295 302 307
272 283 289 302 316 331 344 346 60 84 72 74 60 38 1 355 360 357 338 344 348 322 249 254 257 272 296 289 293 288 318 283 289 280 290 304 302 243 277 253 241 246 302 301 302 296 287 289 259 285 280 286 298 301
263 274 281 295 319 330 2 95 95 89 84 75 31 29 26 51 71 50 177 209 200 203 216 209 210 210 295 211 290 285 312 294 290 307 319 318 227 237 243 242 243 261 250 306 277 244 247 237 234 244 284 284 303 316
178 174 163 136 97 19 95 105 105 98 58 41 47 164 191 206 187 184 184 174 168 171 167 177 177 204 190 190 206 296 204 213 215 213 179 227 162 347 311 308 303 295 275 244 263 227 226 217 223 212 217 321 326 334
158 150 141 136 117 115 119 114 115 84 78 174 204 212 204 190 183 185 188 178 180 210 187 201 213 205 209 193 203 189 202 205 211 92 146 144 20 326 331 312 292 310 308 294 240 208 219 210 212 160 349 325 343 59
150 143 137 134 121 126 121 124 124 286 229 216 213 202 198 199 210 205 207 199 196 196 198 216 244 225 208 184 203 220 210 203 253 185 166 334 309 278 290 289 282 278 295 295 238 203 203 189 253 288 325 345 66 81
139 134 130 130 131 130 129 130 110 209 214 205 207 212 205 206 200 192 198 213 219 223 253 249 246 218 200 201 211 206 193 205 206 186 157 287 269 287 291 288 284 273 276 276 271 300 251 241 254 102 84 99 109 113
129 123 122 123 129 132 133 131 202 213 204 207 202 207 202 208 219 226 235 241 239 243 258 253 199 194 201 199 193 204 195 198 195 221 233 269 289 292 302 294 283 273 254 205 172 125 111 100 68 66 97 105 114 113
118 113 184 121 134 134 129 192 213 218 214 220 217 219 226 236 237 245 247 252 260 254 255 213 201 209 202 190 194 191 217 218 142 234 267 285 294 287 300 297 290 285 273 262 286 330 13 86 107 111 101 103 105 104
129 193 123 120 115 130 204 208 212 221 228 226 224 214 230 248 248 250 248 248 248 255 251 235 227 220 214 217 241 99 209 311 260 262 304 343 287 275 284 283 288 294 291 278 300 324 348 18 76 94 106 91 94 91
191 111 119 110 115 203 212 219 225 238 230 233 238 247 251 245 260 257 252 248 243 245 244 224 224 211 206 236 317 4 248 253 269 270 274 329 273 265 277 260 279 289 291 314 322 329 354 58 87 95 101 97 89 81
110 109 109 106 197 210 218 228 240 237 232 254 254 255 261 257 243 244 247 246 197 118 279 263 197 97 44 14 299 290 275 304 289 281 271 313 15 281 310 287 315 313 306 310 334 357 5 8 76 95 100 98 89 79
110 112 115 201 212 226 234 240 254 246 250 268 278 279 288 284 282 287 280 290 309 313 322 324 52 205 222 257 266 269 263 311 303 292 289 316 306 267 14 20 298 321 344 341 323 325 322 321 319 339 61 86 99 103
124 146 181 213 237 251 248 250 255 269 277 286 291 305 306 309 307 308 310 319 319 316 316 319 314 316 326 337 347 4 4 345 313 316 300 294 304 292 53 43 49 359 343 347 34 45 85 88 8 350 90 88 40 43
130 123 175 231 262 263 266 277 285 296 305 305 303 315 308 306 308 317 324 318 314 323 322 319 315 315 317 323 320 337 345 349 345 330 325 325 318 319 325 2 9 128 139 160 286 281 310 321 324 319 322 340 344 6
87 83 61 24 290 292 293 305 305 313 306 311 315 309 310 312 320 326 313 317 319 324 325 327 326 327 326 327 329 331 335 336 328 328 326 320 319 321 325 339 340 325 306 264 288 287 283 292 291 292 303 313 327 342
57 63 7 338 335 313 315 311 313 308 308 307 308 308 313 314 317 311 308 312 320 321 322 323 324 322 325 328 330 331 329 330 328 329 329 321 315 314 319 322 322 309 298 292 282 279 276 277 281 283 285 290 301 316
78 76 66 62 13 343 325 319 317 315 311 312 310 309 310 314 308 306 305 308 314 316 318 319 320 321 318 317 319 321 328 327 320 316 321 322 318 314 313 314 311 302 290 279 273 271 273 274 276 275 276 281 289 302
59 63 58 38 21 6 353 337 330 325 321 317 314 315 315 311 307 305 311 314 318 321 321 321 320 319 319 320 316 315 315 318 316 311 313 317 318 313 309 307 304 300 285 275 270 267 267 268 268 269 274 277 281 293
27 26 24 20 5 358 348 339 332 328 324 319 318 317 315 314 315 315 322 322 321 322 322 321 319 316 315 315 316 317 316 314 311 307 303 305 307 308 305 302 298 295 292 279 270 267 265 263 264 265 273 279 279 286
7 3 357 355 349 347 340 336 334 331 330 329 325 318 316 317 316 322 322 321 318 320 319 320 320 319 317 316 316 314 313 313 311 308 306 305 305 304 303 296 292 289 286 283 276 272 266 256 261 262 266 275 279 282
358 356 350 338 334 334 334 331 325 323 324 323 318 315 313 314 317 314 315 319 321 321 320 321 320 321 321 322 322 321 319 315 311 305 301 297 296 299 310 302 295 292 286 283 278 271 267 264 263 264 268 272 277 281
351 353 342 339 333 327 326 330 325 325 322 319 318 314 312 311 314 319 319 321 323 325 328 329 329 327 324 323 318 316 320 319 314 309 302 298 297 299 301 300 297 292 288 279 277 273 267 268 270 271 271 275 276 279
341 335 330 328 325 327 325 326 323 319 316 313 312 310 311 316 319 324 325 328 332 334 333 330 329 331 327 324 322 319 313 320 314 305 302 300 297 296 298 298 293 287 284 281 274 266 264 259 261 263 269 271 271 277
334 332 329 328 329 333 335 338 336 332 328 324 320 319 319 318 317 326 334 337 336 335 336 334 331 327 330 331 330 330 328 321 316 313 305 304 301 298 297 293 286 280 276 272 269 262 252 259 264 265 265 267 272 278
332 334 333 333 337 339 338 335 332 329 330 328 327 329 329 329 330 337 343 344 343 341 338 336 335 336 335 334 332 331 328 326 322 318 315 312 304 297 292 287 280 277 272 269 265 264 263 261 262 263 266 271 282 293